| time (UTC) | temp F | wind direction | speed MPH | gust MPH | rain 1hr in | rain 24hr in | rain mn in | humidity % | barometer mb |
| 20260502210016 | 43 | 315 | 3.0 | 7.0 | 0.00 | 0.00 | 0.00 | 61 | 1014.2 |
| 20260502205016 | 43 | 0 | 4.0 | 7.0 | 0.00 | 0.00 | 0.00 | 61 | 1014.2 |
| 20260502204536 | 44 | 293 | 4.0 | 8.0 | 0.00 | 0.00 | 0.00 | 60 | 1014.1 |
| 20260502203516 | 43 | 0 | 4.0 | 7.0 | 0.00 | 0.00 | 0.00 | 59 | 1014.1 |
| 20260502202516 | 43 | 315 | 3.0 | 7.0 | 0.00 | 0.00 | 0.00 | 60 | 1014.2 |
| 20260502201535 | 43 | 315 | 3.0 | 7.0 | 0.00 | 0.00 | 0.00 | 60 | 1014.2 |
| 20260502200515 | 43 | 293 | 4.0 | 8.0 | 0.00 | 0.00 | 0.00 | 60 | 1014.3 |
| 20260502195515 | 43 | 293 | 5.0 | 9.0 | 0.00 | 0.00 | 0.00 | 60 | 1014.4 |
| 20260502194536 | 43 | 270 | 5.0 | 9.0 | 0.00 | 0.00 | 0.00 | 63 | 1014.3 |
| 20260502193619 | 0 | 0.0 | 0.0 | 0.00 | 0.00 | 0.00 | |||
| 20260502193016 | 0 | 0.0 | 0.0 | 0.00 | 0.00 | 0.00 | |||
| 20260502192032 | 0 | 0.0 | 0.0 | 0.00 | 0.00 | 0.00 | |||
| 20260502191515 | 0 | 0.0 | 0.0 | 0.00 | 0.01 | 0.00 | |||
| 20260502190515 | 0 | 0.0 | 0.0 | 0.00 | 0.01 | 0.00 | |||
| 20260502190015 | 0 | 0.0 | 0.0 | 0.00 | 0.01 | 0.00 | |||
| 20260502185016 | 0 | 0.0 | 0.0 | 0.00 | 0.01 | 0.00 | |||
| 20260502184533 | 0 | 0.0 | 0.0 | 0.00 | 0.01 | 0.00 | |||
| 20260502184016 | 0 | 0.0 | 0.0 | 0.00 | 0.02 | 0.00 | |||
| 20260502183015 | 0 | 0.0 | 0.0 | 0.00 | 0.02 | 0.00 | |||
| 20260502182516 | 0 | 0.0 | 0.0 | 0.00 | 0.03 | 0.00 | |||
| 20260502181516 | 0 | 0.0 | 0.0 | 0.00 | 0.04 | 0.00 | |||
| 20260502181115 | 0 | 0.0 | 0.0 | 0.00 | 0.04 | 0.00 | |||
| 20260502164016 | 40 | 23 | 5.0 | 11.0 | 0.00 | 0.08 | 0.00 | 82 | 1015.2 |
| 20260502163016 | 40 | 23 | 5.0 | 8.0 | 0.00 | 0.09 | 0.00 | 85 | 1015.2 |
| 20260502162036 | 39 | 315 | 5.0 | 9.0 | 0.00 | 0.10 | 0.00 | 88 | 1015.3 |
| 20260502161016 | 38 | 315 | 5.0 | 8.0 | 0.00 | 0.10 | 0.00 | 88 | 1015.3 |
| 20260502152016 | 37 | 0 | 3.0 | 6.0 | 0.00 | 0.12 | 0.00 | 92 | 1015.3 |
| 20260502151056 | 37 | 338 | 4.0 | 8.0 | 0.00 | 0.12 | 0.00 | 92 | 1015.1 |
| 20260502123516 | 36 | 0 | 6.0 | 12.0 | 0.00 | 0.28 | 0.00 | 91 | 1013.7 |
| 20260502122516 | 36 | 338 | 5.0 | 12.0 | 0.00 | 0.28 | 0.00 | 91 | 1013.6 |
| 20260502121516 | 37 | 315 | 4.0 | 9.0 | 0.00 | 0.28 | 0.00 | 91 | 1013.7 |
| 20260502120516 | 37 | 293 | 6.0 | 12.0 | 0.00 | 0.28 | 0.00 | 90 | 1013.7 |
| 20260502115536 | 38 | 293 | 4.0 | 9.0 | 0.00 | 0.28 | 0.00 | 91 | 1013.6 |
| 20260502114516 | 38 | 270 | 5.0 | 9.0 | 0.00 | 0.28 | 0.00 | 91 | 1013.5 |
| 20260502113516 | 38 | 270 | 3.0 | 7.0 | 0.00 | 0.28 | 0.00 | 92 | 1013.4 |
| 20260502112516 | 38 | 270 | 3.0 | 5.0 | 0.00 | 0.28 | 0.00 | 92 | 1013.3 |
| 20260502111556 | 38 | 293 | 1.0 | 3.0 | 0.00 | 0.28 | 0.00 | 92 | 1013.3 |
| 20260502110516 | 37 | 270 | 3.0 | 5.0 | 0.00 | 0.28 | 0.00 | 92 | 1013.3 |
| 20260502105536 | 37 | 248 | 2.0 | 6.0 | 0.00 | 0.28 | 0.00 | 92 | 1013.3 |
| 20260502104516 | 38 | 270 | 4.0 | 6.0 | 0.00 | 0.28 | 0.00 | 92 | 1013.3 |
| 20260502103536 | 37 | 270 | 5.0 | 10.0 | 0.00 | 0.28 | 0.00 | 92 | 1013.4 |
| 20260502102516 | 38 | 270 | 4.0 | 8.0 | 0.00 | 0.28 | 0.00 | 92 | 1013.2 |
| 20260502102103 | 38 | 248 | 2.0 | 5.0 | 0.00 | 0.28 | 0.00 | 92 | 1013.1 |
| 20260502101516 | 38 | 248 | 3.0 | 6.0 | 0.00 | 0.28 | 0.00 | 92 | 1013.1 |
| 20260502100556 | 38 | 270 | 1.0 | 3.0 | 0.00 | 0.28 | 0.00 | 92 | 1013.1 |
| 20260502091516 | 39 | 248 | 5.0 | 8.0 | 0.00 | 0.28 | 0.00 | 91 | 1012.8 |
| 20260502090516 | 39 | 248 | 4.0 | 7.0 | 0.00 | 0.28 | 0.00 | 91 | 1012.9 |
| 20260502071056 | 40 | 293 | 3.0 | 8.0 | 0.00 | 0.28 | 0.00 | 91 | 1012.8 |
| 20260502070016 | 40 | 0.0 | 0.0 | 0.00 | 0.28 | 0.00 | 91 | 1012.8 | |
| 20260502065016 | 40 | 0.0 | 0.0 | 0.00 | 0.28 | 0.00 | 91 | 1012.9 | |
| 20260502064016 | 40 | 0.0 | 0.0 | 0.00 | 0.28 | 0.00 | 91 | 1012.9 | |
| 20260502063036 | 40 | 0.0 | 0.0 | 0.00 | 0.28 | 0.00 | 91 | 1012.9 | |
| 20260502062016 | 40 | 0.0 | 0.0 | 0.00 | 0.28 | 0.00 | 91 | 1013.0 | |
| 20260502061036 | 40 | 0.0 | 1.0 | 0.00 | 0.28 | 0.00 | 91 | 1013.1 | |
| 20260502060016 | 40 | 0.0 | 0.0 | 0.00 | 0.28 | 0.00 | 90 | 1013.3 | |
| 20260502055016 | 40 | 0.0 | 3.0 | 0.00 | 0.28 | 0.00 | 90 | 1013.2 | |
| 20260502054016 | 40 | 0.0 | 0.0 | 0.00 | 0.28 | 0.00 | 90 | 1013.4 | |
| 20260502053016 | 40 | 0.0 | 0.0 | 0.00 | 0.28 | 0.00 | 90 | 1013.5 | |
| 20260502052056 | 40 | 0.0 | 0.0 | 0.00 | 0.28 | 0.00 | 89 | 1013.6 | |
| 20260502051036 | 40 | 0.0 | 1.0 | 0.00 | 0.28 | 0.00 | 90 | 1013.6 | |
| 20260502050016 | 40 | 338 | 1.0 | 3.0 | 0.00 | 0.28 | 0.00 | 89 | 1013.6 |
| 20260502045016 | 40 | 0.0 | 1.0 | 0.00 | 0.28 | 0.00 | 89 | 1013.7 | |
| 20260502044016 | 41 | 0 | 1.0 | 3.0 | 0.00 | 0.28 | 0.00 | 89 | 1013.6 |
| 20260502043016 | 41 | 0 | 3.0 | 6.0 | 0.00 | 0.28 | 0.00 | 88 | 1013.8 |
| 20260502042016 | 41 | 0.0 | 2.0 | 0.00 | 0.28 | 0.00 | 89 | 1013.7 | |
| 20260502041016 | 42 | 293 | 1.0 | 3.0 | 0.00 | 0.28 | 0.00 | 89 | 1013.8 |
| 20260502040016 | 41 | 270 | 2.0 | 4.0 | 0.00 | 0.28 | 0.28 | 89 | 1013.8 |
| 20260502035016 | 41 | 203 | 2.0 | 4.0 | 0.00 | 0.28 | 0.28 | 90 | 1013.7 |
| 20260502034056 | 41 | 0.0 | 0.0 | 0.00 | 0.28 | 0.28 | 90 | 1013.7 | |
| 20260502033016 | 41 | 0.0 | 1.0 | 0.00 | 0.28 | 0.28 | 90 | 1013.6 | |
| 20260502032016 | 41 | 158 | 1.0 | 2.0 | 0.00 | 0.28 | 0.28 | 90 | 1013.5 |
| 20260502031026 | 41 | 158 | 1.0 | 3.0 | 0.00 | 0.28 | 0.28 | 90 | 1013.3 |
| 20260502030516 | 41 | 0.0 | 2.0 | 0.00 | 0.28 | 0.28 | 89 | 1013.3 | |
| 20260502025516 | 41 | 158 | 1.0 | 2.0 | 0.00 | 0.28 | 0.28 | 89 | 1013.3 |
| 20260502024515 | 41 | 0.0 | 0.0 | 0.00 | 0.28 | 0.28 | 89 | 1013.4 | |
| 20260502023515 | 41 | 0.0 | 0.0 | 0.00 | 0.28 | 0.28 | 88 | 1013.4 | |
| 20260502022516 | 41 | 0.0 | 0.0 | 0.00 | 0.28 | 0.28 | 88 | 1013.4 | |
| 20260502021515 | 41 | 0.0 | 0.0 | 0.00 | 0.28 | 0.28 | 88 | 1013.3 | |
| 20260502020516 | 41 | 0.0 | 0.0 | 0.00 | 0.28 | 0.28 | 87 | 1013.2 | |
| 20260502015516 | 41 | 0.0 | 0.0 | 0.00 | 0.28 | 0.28 | 87 | 1013.2 | |
| 20260502014536 | 41 | 0.0 | 0.0 | 0.00 | 0.28 | 0.28 | 87 | 1013.1 | |
| 20260502013516 | 41 | 0.0 | 0.0 | 0.00 | 0.28 | 0.28 | 86 | 1013.1 | |
| 20260502012516 | 41 | 0.0 | 0.0 | 0.00 | 0.28 | 0.28 | 86 | 1013.1 | |
| 20260502011516 | 41 | 0.0 | 0.0 | 0.00 | 0.28 | 0.28 | 86 | 1013.0 | |
| 20260502010515 | 41 | 0.0 | 0.0 | 0.00 | 0.28 | 0.28 | 85 | 1013.0 | |
| 20260502005516 | 41 | 0.0 | 0.0 | 0.00 | 0.28 | 0.28 | 84 | 1013.0 | |
| 20260502004507 | 41 | 158 | 1.0 | 1.0 | 0.00 | 0.28 | 0.28 | 83 | 1012.9 |
| 20260502003516 | 42 | 158 | 1.0 | 2.0 | 0.00 | 0.28 | 0.28 | 82 | 1012.7 |
| 20260502002516 | 42 | 0.0 | 0.0 | 0.00 | 0.28 | 0.28 | 81 | 1012.5 | |
| 20260502001516 | 42 | 0.0 | 1.0 | 0.00 | 0.28 | 0.28 | 81 | 1012.3 | |
| 20260502000516 | 43 | 270 | 1.0 | 3.0 | 0.00 | 0.28 | 0.28 | 80 | 1012.2 |
| 20260501235516 | 43 | 0.0 | 0.0 | 0.00 | 0.28 | 0.28 | 80 | 1012.1 | |
| 20260501234516 | 43 | 338 | 1.0 | 2.0 | 0.00 | 0.28 | 0.28 | 80 | 1011.9 |
| 20260501233516 | 43 | 338 | 2.0 | 3.0 | 0.00 | 0.28 | 0.28 | 80 | 1011.9 |
| 20260501232536 | 43 | 338 | 3.0 | 5.0 | 0.00 | 0.28 | 0.28 | 80 | 1012.0 |
| 20260501231516 | 43 | 293 | 2.0 | 4.0 | 0.00 | 0.28 | 0.28 | 80 | 1012.0 |
| 20260501230516 | 43 | 0 | 3.0 | 7.0 | 0.00 | 0.28 | 0.28 | 80 | 1012.1 |
| 20260501225516 | 43 | 0 | 2.0 | 5.0 | 0.00 | 0.28 | 0.28 | 81 | 1012.0 |
| 20260501224516 | 43 | 315 | 3.0 | 6.0 | 0.00 | 0.28 | 0.28 | 80 | 1012.0 |
| 20260501223536 | 44 | 0 | 4.0 | 8.0 | 0.00 | 0.28 | 0.28 | 81 | 1012.0 |
| 20260501222516 | 43 | 0 | 5.0 | 9.0 | 0.00 | 0.28 | 0.28 | 80 | 1011.9 |
| 20260501221516 | 43 | 338 | 6.0 | 9.0 | 0.00 | 0.28 | 0.28 | 80 | 1011.6 |
| 20260501220556 | 43 | 0 | 4.0 | 8.0 | 0.00 | 0.28 | 0.28 | 81 | 1011.5 |
| 20260501215600 | 43 | 338 | 5.0 | 7.0 | 0.00 | 0.28 | 0.28 | 81 | 1011.5 |
| 20260501215016 | 43 | 23 | 6.0 | 10.0 | 0.00 | 0.28 | 0.28 | 81 | 1011.5 |
| 20260501214056 | 43 | 338 | 6.0 | 11.0 | 0.00 | 0.28 | 0.28 | 81 | 1011.6 |
| 20260501213016 | 43 | 23 | 7.0 | 12.0 | 0.00 | 0.28 | 0.28 | 84 | 1011.4 |
| 20260501212016 | 43 | 0 | 5.0 | 10.0 | 0.00 | 0.28 | 0.28 | 87 | 1011.2 |
| 20260501211016 | 43 | 0 | 6.0 | 13.0 | 0.00 | 0.28 | 0.28 | 89 | 1011.1 |